Weather History for 94368 - November, 2012

Change the Weather History Date:

Tuesday, November 27, 2012

  Actual Average Record
Temperature  
Mean Temperature 78 °F -  
Max Temperature 82 °F - - ()
Min Temperature 74 °F - - ()
Cooling Degree Days 13    
Growing Degree Days 28 (Base 50)    
Moisture  
Dew Point 62 °F    
Average Humidity 56    
Maximum Humidity 73    
Minimum Humidity 37    
Precipitation  
Precipitation 0.00 in - - ()
Sea Level Pressure  
Sea Level Pressure 29.95 in    
Wind  
Wind Speed 18 mph ()    
Max Wind Speed 28 mph    
Max Gust Speed -    
T = Trace of Precipitation, MM = Missing Value Source: Averaged Metar Reports

Daily Weather History Graph

Daily Weather History Graph

Search for Another Location

Airport or City:

Trip Planner

Search our weather history database for the weather conditions in past years. The results will help you decide how hot, cold, wet, or windy it might be!

Date:

Astronomy

Nov. 27, 2012 Rise Set
Actual Time 5:14 AM AEST 6:28 PM AEST
Civil Twilight 4:50 AM AEST 6:53 PM AEST
Nautical Twilight 4:22 AM AEST 7:21 PM AEST
Astronomical Twilight 3:52 AM AEST 7:51 PM AEST
Moon 5:22 PM AEST (11/27) 4:01 AM AEST (11/27)
Length of Visible Light 14h 02m
Length of Day
13h 14m
Waxing Gibbous, 98% of the Moon is Illuminated
Nov 27
Waxing Gibbous
Nov 29
Full
Dec 7
Last Quarter
Dec 13
New
Dec 20
First Quarter

Hourly Weather History & Observations

Time (AEST) Temp. Heat Index Dew Point Humidity Pressure Visibility Wind Dir Wind Speed Gust Speed Precip Events Conditions
12:00 AM 76 °F - 62 °F 53% 29.97 in - ESE 18.4 mph - -  
12:00 AM 77.0 °F - 62.6 °F 61% 29.98 in - ESE 18.4 mph - N/A   Unknown
12:30 AM 77.0 °F - 62.6 °F 61% 29.95 in - ESE 17.3 mph - N/A   Unknown
1:00 AM 77.0 °F - 64.4 °F 65% 29.95 in - ESE 15.0 mph - N/A   Unknown
1:30 AM 77.0 °F - 64.4 °F 65% 29.95 in - ESE 17.3 mph - N/A   Unknown
2:00 AM 77.0 °F - 64.4 °F 65% 29.92 in - ESE 19.6 mph - N/A   Unknown
2:30 AM 77.0 °F - 64.4 °F 65% 29.92 in - ESE 17.3 mph - N/A   Unknown
3:00 AM 76 °F - 64 °F 59% 29.92 in - ESE 20.7 mph - -  
3:00 AM 75.2 °F - 64.4 °F 69% 29.92 in - ESE 20.7 mph - N/A   Unknown
3:30 AM 75.2 °F - 64.4 °F 69% 29.92 in - East 24.2 mph - N/A   Unknown
4:00 AM 75.2 °F - 64.4 °F 69% 29.92 in - East 23.0 mph - N/A   Unknown
4:30 AM 75.2 °F - 62.6 °F 65% 29.92 in - East 25.3 mph - N/A   Unknown
5:00 AM 77.0 °F - 62.6 °F 61% 29.92 in - East 23.0 mph - N/A   Unknown
5:30 AM 75.2 °F - 66.2 °F 73% 29.95 in - East 27.6 mph - N/A   Unknown
6:00 AM 76 °F - 61 °F 51% 29.94 in - East 24.2 mph - -  
6:00 AM 75.2 °F - 60.8 °F 61% 29.95 in - East 24.2 mph - N/A   Unknown
6:30 AM 77.0 °F - 62.6 °F 61% 29.95 in - East 21.9 mph - N/A   Unknown
7:00 AM 78.8 °F - 64.4 °F 61% 29.95 in - East 21.9 mph - N/A   Unknown
7:30 AM 77.0 °F - 64.4 °F 65% 29.98 in - East 19.6 mph - N/A   Unknown
8:00 AM 78.8 °F - 64.4 °F 61% 29.98 in - East 12.7 mph - N/A   Unknown
8:30 AM 80.6 °F 82.3 °F 64.4 °F 58% 29.98 in - East 18.4 mph - N/A   Unknown
9:00 AM 79 °F - 64 °F 51% 29.98 in - East 18.4 mph - -  
9:00 AM 78.8 °F - 64.4 °F 61% 29.98 in - East 18.4 mph - N/A   Unknown
9:30 AM 80.6 °F 81.8 °F 62.6 °F 54% 29.98 in - East 16.1 mph - N/A   Unknown
10:00 AM 82.4 °F 83.4 °F 62.6 °F 51% 29.98 in - East 18.4 mph - N/A   Unknown
10:30 AM 80.6 °F 81.5 °F 60.8 °F 51% 29.98 in - East 18.4 mph - N/A   Unknown
11:00 AM 82.4 °F 83.4 °F 62.6 °F 51% 29.98 in - ESE 17.3 mph - N/A   Unknown
11:30 AM 82.4 °F 82.9 °F 60.8 °F 48% 29.98 in - East 17.3 mph - N/A   Unknown
12:00 PM 81 °F - 59 °F 37% 29.96 in - East 16.1 mph - -  
12:00 PM 80.6 °F 81.1 °F 59.0 °F 48% 29.95 in - East 16.1 mph - N/A   Unknown
12:30 PM 82.4 °F 82.9 °F 60.8 °F 48% 29.95 in - East 16.1 mph - N/A   Unknown
1:00 PM 82.4 °F 82.9 °F 60.8 °F 48% 29.95 in - East 16.1 mph - N/A   Unknown
1:30 PM 80.6 °F 81.1 °F 59.0 °F 48% 29.92 in - East 16.1 mph - N/A   Unknown
2:00 PM 80.6 °F 81.5 °F 60.8 °F 51% 29.92 in - East 17.3 mph - N/A   Unknown
2:30 PM 80.6 °F 81.8 °F 62.6 °F 54% 29.92 in - East 18.4 mph - N/A   Unknown
3:00 PM 80 °F - 62 °F 43% 29.92 in - East 20.7 mph - -  
3:00 PM 80.6 °F 81.5 °F 60.8 °F 51% 29.92 in - East 20.7 mph - N/A   Unknown
3:30 PM 80.6 °F 81.5 °F 60.8 °F 51% 29.92 in - East 19.6 mph - N/A   Unknown
4:00 PM 80.6 °F 81.8 °F 62.6 °F 54% 29.92 in - ESE 17.3 mph - N/A   Unknown
4:30 PM 78.8 °F - 57.2 °F 47% 29.92 in - East 16.1 mph - N/A   Unknown
5:00 PM 78.8 °F - 57.2 °F 47% 29.92 in - East 17.3 mph - N/A   Unknown
5:30 PM 78.8 °F - 55.4 °F 44% 29.92 in - ESE 18.4 mph - N/A   Unknown
6:00 PM 78 °F - 58 °F 41% 29.92 in - ESE 19.6 mph - -  
6:00 PM 78.8 °F - 59.0 °F 51% 29.92 in - ESE 19.6 mph - N/A   Unknown
6:30 PM 77.0 °F - 57.2 °F 50% 29.92 in - ESE 20.7 mph - N/A   Unknown
7:00 PM 77.0 °F - 59.0 °F 54% 29.92 in - ESE 21.9 mph - N/A   Unknown
7:30 PM 78.8 °F - 62.6 °F 57% 29.92 in - ESE 20.7 mph - N/A   Unknown
8:00 PM 77.0 °F - 60.8 °F 57% 29.95 in - ESE 19.6 mph - N/A   Unknown
8:30 PM 77.0 °F - 59.0 °F 54% 29.95 in - ESE 15.0 mph - N/A   Unknown
9:00 PM 78 °F - 59 °F 42% 29.96 in - ESE 16.1 mph - -  
9:00 PM 77.0 °F - 59.0 °F 54% 29.95 in - ESE 16.1 mph - N/A   Unknown
9:30 PM 77.0 °F - 62.6 °F 61% 29.98 in - East 19.6 mph - N/A   Unknown
10:00 PM 77.0 °F - 60.8 °F 57% 29.98 in - ESE 19.6 mph - N/A   Unknown
10:30 PM 77.0 °F - 64.4 °F 65% 29.98 in - East 19.6 mph - N/A   Unknown
11:00 PM 77.0 °F - 64.4 °F 65% 29.98 in - ESE 17.3 mph - N/A   Unknown
11:30 PM 77.0 °F - 62.6 °F 61% 29.98 in - East 18.4 mph - N/A   Unknown